Regional Weather Roundup
Issued by NWS

Home | Current Version | Previous Version | Graphics & Text | Print | Product List | Glossary On
Versions: 1 2 3 4 5 6 7 8 9 10 11 12 13 14 15 16 17 18 19 20 21 22 23 24 25 26 27 28 29 30 31 32 33 34 35 36 37 38 39 40 41 42 43 44 45 46 47 48 49 50
000
ASUS45 KABQ 232210
RWRNM
NEW MEXICO REGIONAL WEATHER ROUNDUP
NATIONAL WEATHER SERVICE ALBUQUERQUE NM
400 PM MDT MON OCT 23 2017

NOTE: "FAIR" MEANS FEW OR NO CLOUDS BELOW 12,000 FEET AGL WITH NO
       SIGNIFICANT WEATHER OR OBSTRUCTIONS TO VISION.

      THIS PRODUCT IS RELEASED AS TWO VERSIONS.  ONE VERSION NEAR
      THE TOP OF THE HOUR CONTAINING PRELIMINARY DATA FROM ALBUQUERQUE
      AND OTHER STATIONS.  A FINAL VERSION WITH ADDITIONAL DATA IS
      ISSUED ABOUT 10 MINUTES AFTER THE HOUR.

NMZ501-503-504-510>518-232300-
NORTHWEST PLATEAU/NORTHCENTRAL MOUNTAINS

CITY           SKY/WX    TMP DP  RH WIND       PRES   REMARKS
FARMINGTON     FAIR      71  25  17 W21G30    30.34F
LOS ALAMOS     FAIR      67  25  21 E5        30.39F
SANTA FE       FAIR      71  27  19 VRB5      30.34F
TAOS           FAIR      69  28  21 SW9       30.39F
ANGEL FIRE     FAIR      63  21  20 W12       30.44S

$$
NMZ402-403-502-505>509-232300-
WESTCENTRAL MOUNTAINS/SOUTHWEST MOUNTAINS

CITY           SKY/WX    TMP DP  RH WIND       PRES   REMARKS
GALLUP         FAIR      73  25  16 N10       30.43S
GRANTS         FAIR      72  22  15 N13       30.42F
SILVER CITY    FAIR      84  15   7 N7        30.27F

$$
NMZ407-409-411-412-232300-
SOUTHERN DESERTS

CITY           SKY/WX    TMP DP  RH WIND       PRES   REMARKS
DEMING         FAIR      86  19   8 S10       30.21F
LAS CRUCES     FAIR      84  22  10 NW8       30.24S
HOLLOMAN AFB   FAIR      83  27  13 NW17      30.20F
ALAMOGORDO     FAIR      82  28  14 N17G24    30.20S
T OR C         FAIR      81  24  12 S3        30.25F

$$
NMZ519>523-232300-
CENTRAL VALLEYS/CENTRAL HIGHLANDS

CITY           SKY/WX    TMP DP  RH WIND       PRES   REMARKS
ALBUQUERQUE    FAIR      76  25  15 NW20      30.32S
DOUBLE EAGLE   MOSUNNY   73  28  19 NW14      30.35F
MORIARTY ARPT  FAIR      75  26  16 NW14      30.35F
CLINES CORNERS NOT AVBL
BELEN          FAIR      78  26  14 N10G22    30.30F
SOCORRO        FAIR      79  25  14 N14       30.27S

$$
NMZ524>526-539-540-232300-
SOUTHCENTRAL MOUNTAINS

CITY           SKY/WX    TMP DP  RH WIND       PRES   REMARKS
RUIDOSO        FAIR      73  27  17 NW6       30.38S

$$
NMZ527>531-232300-
NORTHEAST HIGHLANDS/NORTHEAST PLAINS

CITY           SKY/WX    TMP DP  RH WIND       PRES   REMARKS
LAS VEGAS      FAIR      64  30  27 SE17G25   30.37R
RATON          FAIR      65  34  31 E18       30.33R
CLAYTON        FAIR      58  31  35 N18G25    30.35R

$$
NMZ532>537-232300-
EASTCENTRAL PLAINS

CITY           SKY/WX    TMP DP  RH WIND       PRES   REMARKS
SANTA ROSA     FAIR      72  33  24 E13       30.29R
TUCUMCARI      FAIR      70  36  28 NE15      30.28R
CANNON AFB     FAIR      69  36  30 NE15      30.29R
CLOVIS AIRPORT   N/A     68  37  32 NE17G23   30.29R

$$
NMZ028-029-538-232300-
SOUTHEAST PLAINS

CITY           SKY/WX    TMP DP  RH WIND       PRES   REMARKS
ROSWELL        FAIR      84  34  16 N8        30.17F
ARTESIA        FAIR      82  34  17 NE10      30.17S
CARLSBAD       FAIR      84  35  17 N8        30.14S
HOBBS          SUNNY     82  34  17 NE13G21   30.17R


$$




USA.gov is the U.S. government's official web portal to all federal, state and local government web resources and services.